Weather History for St. Cloud, MN

Change the Weather History Date:

Thursday, December 12, 2013

  Actual Average Record
Temperature  
Mean Temperature 4 °F 17 °F  
Max Temperature 16 °F 25 °F 52 °F (1913)
Min Temperature -8 °F 8 °F -17 °F (1942)
Degree Days  
Heating Degree Days 61 48  
Month to date heating degree days 698 553  
Since 1 July heating degree days 2571 2478  
Cooling Degree Days 0 0  
Month to date cooling degree days 0 0  
Year to date cooling degree days 578 465  
Moisture  
Dew Point 0 °F    
Average Humidity 74    
Maximum Humidity 87    
Minimum Humidity 61    
Precipitation  
Precipitation T in 0.03 in 0.22 in (1968)
Month to date precipitation 1.02 0.35  
Year to date precipitation 28.09 27.26  
Snow  
Snow T in 0.30 in 4.10 in (1941)
Month to date snowfall 9.0 3.8  
Since 1 July snowfall 12.6 13.0  
Snow Depth 6.00 in    
Sea Level Pressure  
Sea Level Pressure 30.28 in    
Wind  
Wind Speed 2 mph (SSW)    
Max Wind Speed 9 mph    
Max Gust Speed 10 mph    
Visibility 10 miles    
Events Snow    
T = Trace of Precipitation, MM = Missing Value Source: NWS Daily Summary

Daily Weather History Graph

Daily Weather History Graph

Search for Another Location

Airport:

Trip Planner

Search our weather history database for the weather conditions in past years. The results will help you decide how hot, cold, wet, or windy it might be!

Date:

Astronomy

Dec. 12, 2013 Rise Set
Actual Time 7:47 AM CST 4:32 PM CST
Civil Twilight 7:13 AM CST 5:06 PM CST
Nautical Twilight 6:35 AM CST 5:44 PM CST
Astronomical Twilight 5:59 AM CST 6:20 PM CST
Moon 1:49 PM CST (12/12) 3:00 AM CST (12/12)
Length of Visible Light 9h 53m
Length of Day
8h 45m
Waxing Gibbous, 80% of the Moon is Illuminated
Dec 12
Waxing Gibbous
Dec 17
Full
Dec 25
Last Quarter
Jan 1
New
Jan 7
First Quarter

Hourly Weather History & Observations

Time (CST) Temp. Windchill Dew Point Humidity Pressure Visibility Wind Dir Wind Speed Gust Speed Precip Events Conditions
12:02 AM -0.4 °F -10.4 °F -7.6 °F 72% 30.24 in 2.5 mi South 4.6 mph - 0.01 in Snow Light Snow
12:06 AM -0.4 °F -10.4 °F -5.8 °F 78% 30.24 in 3.0 mi South 4.6 mph - 0.01 in Snow Light Snow
12:53 AM -0.0 °F -11.6 °F -6.0 °F 76% 30.33 in 10.0 mi South 5.8 mph - 0.01 in   Overcast
1:53 AM -2.9 °F -11.2 °F -8.0 °F 79% 30.31 in 10.0 mi SSE 3.5 mph - N/A   Clear
2:53 AM -5.1 °F - -9.0 °F 83% 30.32 in 10.0 mi Calm Calm - N/A   Clear
3:53 AM -7.1 °F - -11.0 °F 83% 30.32 in 10.0 mi Calm Calm - N/A   Clear
4:53 AM -5.1 °F - -9.0 °F 83% 30.32 in 10.0 mi Calm Calm - N/A   Clear
5:53 AM -4.0 °F - -8.0 °F 83% 30.31 in 10.0 mi Calm Calm - N/A   Clear
6:53 AM -2.9 °F - -7.1 °F 82% 30.34 in 10.0 mi Calm Calm - N/A   Clear
7:53 AM -2.0 °F - -7.1 °F 79% 30.35 in 10.0 mi Calm Calm - N/A   Clear
8:53 AM -2.0 °F - -6.0 °F 83% 30.33 in 10.0 mi Calm Calm - N/A   Clear
9:53 AM 1.0 °F -11.7 °F -4.0 °F 79% 30.36 in 10.0 mi SSW 6.9 mph - N/A   Clear
10:53 AM 6.1 °F - -0.0 °F 76% 30.35 in 10.0 mi Calm Calm - N/A   Clear
11:53 AM 8.1 °F -2.0 °F 1.0 °F 73% 30.32 in 10.0 mi SSW 5.8 mph - N/A   Mostly Cloudy
12:53 PM 12.0 °F 1.5 °F 3.0 °F 67% 30.29 in 10.0 mi SW 6.9 mph - N/A   Overcast
1:53 PM 14.0 °F 6.5 °F 5.0 °F 67% 30.27 in 10.0 mi WSW 4.6 mph - N/A   Overcast
2:53 PM 15.1 °F - 5.0 °F 64% 30.27 in 10.0 mi Calm Calm - N/A   Overcast
3:53 PM 15.1 °F - 5.0 °F 64% 30.27 in 10.0 mi Calm Calm - N/A   Overcast
4:53 PM 15.1 °F 5.2 °F 7.0 °F 70% 30.26 in 10.0 mi SSW 6.9 mph - N/A   Overcast
5:53 PM 15.1 °F 9.4 °F 7.0 °F 70% 30.24 in 10.0 mi SSW 3.5 mph - N/A   Overcast
6:53 PM 12.9 °F - 8.1 °F 81% 30.24 in 10.0 mi Calm Calm - N/A   Overcast
7:53 PM 12.9 °F - 8.1 °F 81% 30.22 in 10.0 mi Calm Calm - N/A   Overcast
8:05 PM 14.0 °F - 8.6 °F 79% 30.12 in 10.0 mi Calm Calm - N/A   Overcast
8:53 PM 15.1 °F - 9.0 °F 77% 30.22 in 10.0 mi Calm Calm - N/A   Overcast
9:53 PM 15.1 °F - 9.0 °F 77% 30.22 in 10.0 mi Calm Calm - N/A   Overcast
10:53 PM 15.1 °F - 9.0 °F 77% 30.22 in 10.0 mi Calm Calm - N/A   Overcast
11:53 PM 15.1 °F 7.7 °F 8.1 °F 74% 30.22 in 10.0 mi NNE 4.6 mph - N/A   Overcast